| time (UTC) | temp F | wind direction | speed knots | gust knots | rain 1hr in | rain 24hr in | rain mn in | humidity % | barometer mb |
| 20260506023546 | 35 | 360 | 3.5 | 0.0 | 0.00 | 0.00 | 0.00 | 42 | 1018.6 |
| 20260506023058 | 36 | 360 | 3.5 | 0.0 | 0.00 | 0.00 | 0.00 | 42 | 1018.5 |
| 20260506022545 | 37 | 360 | 2.6 | 0.0 | 0.00 | 0.00 | 0.00 | 41 | 1018.5 |
| 20260506022048 | 38 | 360 | 2.6 | 0.0 | 0.00 | 0.00 | 0.00 | 39 | 1018.4 |
| 20260506021545 | 39 | 360 | 3.5 | 0.0 | 0.00 | 0.00 | 0.00 | 38 | 1018.5 |
| 20260506021047 | 40 | 360 | 3.5 | 0.0 | 0.00 | 0.00 | 0.00 | 38 | 1018.4 |
| 20260506020544 | 41 | 360 | 4.3 | 0.0 | 0.00 | 0.00 | 0.00 | 37 | 1018.4 |
| 20260506020144 | 42 | 360 | 5.2 | 0.0 | 0.00 | 0.00 | 0.00 | 36 | 1018.4 |
| 20260506015545 | 42 | 360 | 6.1 | 0.0 | 0.00 | 0.00 | 0.00 | 36 | 1018.4 |
| 20260506015044 | 43 | 360 | 7.0 | 0.0 | 0.00 | 0.00 | 0.00 | 35 | 1018.3 |
| 20260506014544 | 43 | 360 | 7.8 | 0.0 | 0.00 | 0.00 | 0.00 | 35 | 1018.3 |
| 20260506014043 | 43 | 360 | 7.0 | 0.0 | 0.00 | 0.00 | 0.00 | 35 | 1018.2 |
| 20260506013543 | 44 | 360 | 7.8 | 0.0 | 0.00 | 0.00 | 0.00 | 34 | 1018.2 |
| 20260506013052 | 44 | 360 | 8.7 | 0.0 | 0.00 | 0.00 | 0.00 | 34 | 1018.2 |
| 20260506012546 | 44 | 360 | 9.6 | 0.0 | 0.00 | 0.00 | 0.00 | 33 | 1018.1 |
| 20260506012046 | 45 | 360 | 9.6 | 0.0 | 0.00 | 0.00 | 0.00 | 33 | 1018.1 |
| 20260506011546 | 45 | 360 | 9.6 | 0.0 | 0.00 | 0.00 | 0.00 | 33 | 1018.1 |
| 20260506011046 | 45 | 360 | 10.4 | 0.0 | 0.00 | 0.00 | 0.00 | 33 | 1018.1 |
| 20260506010543 | 45 | 360 | 10.4 | 0.0 | 0.00 | 0.00 | 0.00 | 33 | 1018.1 |
| 20260506010143 | 45 | 360 | 9.6 | 0.0 | 0.00 | 0.00 | 0.00 | 32 | 1018.0 |
| 20260506005543 | 45 | 360 | 8.7 | 0.0 | 0.00 | 0.00 | 0.00 | 32 | 1018.0 |
| 20260506005046 | 45 | 360 | 8.7 | 0.0 | 0.00 | 0.00 | 0.00 | 33 | 1018.0 |
| 20260506004544 | 45 | 360 | 8.7 | 0.0 | 0.00 | 0.00 | 0.00 | 32 | 1017.9 |
| 20260506004043 | 45 | 360 | 8.7 | 0.0 | 0.00 | 0.00 | 0.00 | 32 | 1017.8 |
| 20260506003544 | 46 | 360 | 8.7 | 0.0 | 0.00 | 0.00 | 0.00 | 33 | 1017.8 |
| 20260506003042 | 46 | 360 | 10.4 | 0.0 | 0.00 | 0.00 | 0.00 | 32 | 1017.7 |
| 20260506002542 | 46 | 360 | 10.4 | 0.0 | 0.00 | 0.00 | 0.00 | 32 | 1017.7 |
| 20260506002042 | 46 | 360 | 9.6 | 0.0 | 0.00 | 0.00 | 0.00 | 33 | 1017.8 |
| 20260506001547 | 46 | 360 | 9.6 | 0.0 | 0.00 | 0.00 | 0.00 | 33 | 1017.7 |
| 20260506001042 | 46 | 360 | 9.6 | 0.0 | 0.00 | 0.00 | 0.00 | 34 | 1017.9 |
| 20260506000545 | 46 | 360 | 9.6 | 0.0 | 0.00 | 0.00 | 0.00 | 34 | 1017.9 |
| 20260506000143 | 46 | 360 | 9.6 | 0.0 | 0.00 | 0.00 | 0.00 | 34 | 1017.9 |
| 20260505235541 | 46 | 360 | 8.7 | 0.0 | 0.00 | 0.00 | 0.00 | 34 | 1017.9 |
| 20260505235041 | 46 | 360 | 7.8 | 0.0 | 0.00 | 0.00 | 0.00 | 35 | 1017.9 |
| 20260505234541 | 45 | 360 | 9.6 | 0.0 | 0.00 | 0.00 | 0.00 | 35 | 1017.9 |
| 20260505234041 | 45 | 360 | 10.4 | 0.0 | 0.00 | 0.00 | 0.00 | 35 | 1017.9 |
| 20260505233543 | 46 | 360 | 9.6 | 0.0 | 0.00 | 0.00 | 0.00 | 35 | 1017.9 |
| 20260505233041 | 46 | 360 | 8.7 | 0.0 | 0.00 | 0.00 | 0.00 | 35 | 1017.8 |
| 20260505232541 | 46 | 360 | 9.6 | 0.0 | 0.00 | 0.00 | 0.00 | 34 | 1017.9 |
| 20260505232040 | 46 | 360 | 11.3 | 0.0 | 0.00 | 0.00 | 0.00 | 34 | 1017.8 |
| 20260505231541 | 46 | 360 | 12.2 | 0.0 | 0.00 | 0.00 | 0.00 | 34 | 1017.9 |
| 20260505231040 | 46 | 360 | 12.2 | 0.0 | 0.00 | 0.00 | 0.00 | 35 | 1017.8 |
| 20260505230540 | 46 | 360 | 12.2 | 0.0 | 0.00 | 0.00 | 0.00 | 35 | 1017.8 |
| 20260505230140 | 46 | 360 | 11.3 | 0.0 | 0.00 | 0.00 | 0.00 | 34 | 1017.8 |
| 20260505225540 | 46 | 360 | 11.3 | 0.0 | 0.00 | 0.00 | 0.00 | 34 | 1017.8 |
| 20260505225040 | 47 | 360 | 11.3 | 0.0 | 0.00 | 0.00 | 0.00 | 35 | 1017.8 |
| 20260505224540 | 46 | 360 | 11.3 | 0.0 | 0.00 | 0.00 | 0.00 | 34 | 1017.8 |
| 20260505224039 | 46 | 360 | 11.3 | 0.0 | 0.00 | 0.00 | 0.00 | 33 | 1017.8 |
| 20260505223539 | 47 | 360 | 12.2 | 0.0 | 0.00 | 0.00 | 0.00 | 34 | 1017.7 |
| 20260505223043 | 48 | 360 | 13.0 | 0.0 | 0.00 | 0.00 | 0.00 | 31 | 1017.7 |
| 20260505222539 | 49 | 360 | 12.2 | 0.0 | 0.00 | 0.00 | 0.00 | 31 | 1017.8 |
| 20260505222043 | 49 | 360 | 13.0 | 0.0 | 0.00 | 0.00 | 0.00 | 31 | 1017.7 |
| 20260505221545 | 49 | 360 | 12.2 | 0.0 | 0.00 | 0.00 | 0.00 | 32 | 1017.8 |
| 20260505221038 | 47 | 360 | 11.3 | 0.0 | 0.00 | 0.00 | 0.00 | 33 | 1017.7 |
| 20260505220539 | 47 | 360 | 12.2 | 0.0 | 0.00 | 0.00 | 0.00 | 33 | 1017.6 |
| 20260505220138 | 49 | 360 | 12.2 | 0.0 | 0.00 | 0.00 | 0.00 | 32 | 1017.7 |
| 20260505215538 | 49 | 360 | 12.2 | 0.0 | 0.00 | 0.00 | 0.00 | 32 | 1017.7 |
| 20260505215037 | 48 | 360 | 11.3 | 0.0 | 0.00 | 0.00 | 0.00 | 32 | 1017.7 |
| 20260505214537 | 47 | 360 | 12.2 | 0.0 | 0.00 | 0.00 | 0.00 | 34 | 1017.7 |
| 20260505214036 | 46 | 360 | 13.0 | 0.0 | 0.00 | 0.00 | 0.00 | 34 | 1017.7 |
| 20260505213536 | 47 | 360 | 12.2 | 0.0 | 0.00 | 0.00 | 0.00 | 32 | 1017.7 |
| 20260505213036 | 46 | 360 | 12.2 | 0.0 | 0.00 | 0.00 | 0.00 | 34 | 1017.7 |
| 20260505212536 | 47 | 360 | 13.0 | 0.0 | 0.00 | 0.00 | 0.00 | 33 | 1017.7 |
| 20260505212036 | 47 | 360 | 12.2 | 0.0 | 0.00 | 0.00 | 0.00 | 32 | 1017.8 |
| 20260505211535 | 47 | 360 | 10.4 | 0.0 | 0.00 | 0.00 | 0.00 | 34 | 1017.7 |
| 20260505211035 | 46 | 360 | 11.3 | 0.0 | 0.00 | 0.00 | 0.00 | 33 | 1017.9 |
| 20260505210535 | 46 | 360 | 13.0 | 0.0 | 0.00 | 0.00 | 0.00 | 34 | 1018.1 |
| 20260505210133 | 45 | 360 | 13.0 | 0.0 | 0.00 | 0.00 | 0.00 | 34 | 1018.1 |
| 20260505205535 | 45 | 360 | 13.0 | 0.0 | 0.00 | 0.00 | 0.00 | 34 | 1018.2 |
| 20260505205032 | 45 | 360 | 12.2 | 0.0 | 0.00 | 0.00 | 0.00 | 35 | 1018.1 |
| 20260505204633 | 45 | 360 | 12.2 | 0.0 | 0.00 | 0.00 | 0.00 | 34 | 1018.2 |
| 20260505204033 | 45 | 360 | 12.2 | 0.0 | 0.00 | 0.00 | 0.00 | 34 | 1018.3 |
| 20260505203656 | 45 | 360 | 11.3 | 0.0 | 0.00 | 0.00 | 0.00 | 34 | 1018.2 |
| 20260505203031 | 46 | 360 | 11.3 | 0.0 | 0.00 | 0.00 | 0.00 | 35 | 1018.3 |
| 20260505202531 | 45 | 360 | 12.2 | 0.0 | 0.00 | 0.00 | 0.00 | 35 | 1018.3 |
| 20260505202031 | 45 | 360 | 12.2 | 0.0 | 0.00 | 0.00 | 0.00 | 34 | 1018.3 |
| 20260505201530 | 45 | 360 | 11.3 | 0.0 | 0.00 | 0.00 | 0.00 | 35 | 1018.2 |
| 20260505201030 | 45 | 360 | 12.2 | 0.0 | 0.00 | 0.00 | 0.00 | 35 | 1018.3 |
| 20260505200531 | 45 | 360 | 12.2 | 0.0 | 0.00 | 0.00 | 0.00 | 35 | 1018.2 |
| 20260505200130 | 45 | 360 | 11.3 | 0.0 | 0.00 | 0.00 | 0.00 | 35 | 1018.2 |
| 20260505195530 | 45 | 360 | 10.4 | 0.0 | 0.00 | 0.00 | 0.00 | 35 | 1018.2 |
| 20260505195030 | 44 | 360 | 10.4 | 0.0 | 0.00 | 0.00 | 0.00 | 35 | 1018.3 |
| 20260505194530 | 45 | 360 | 10.4 | 0.0 | 0.00 | 0.00 | 0.00 | 35 | 1018.3 |
| 20260505194030 | 45 | 360 | 11.3 | 0.0 | 0.00 | 0.00 | 0.00 | 35 | 1018.3 |
| 20260505193530 | 45 | 360 | 11.3 | 0.0 | 0.00 | 0.00 | 0.00 | 35 | 1018.2 |
| 20260505193031 | 44 | 360 | 11.3 | 0.0 | 0.00 | 0.00 | 0.00 | 36 | 1018.2 |
| 20260505192531 | 44 | 360 | 11.3 | 0.0 | 0.00 | 0.00 | 0.00 | 35 | 1018.2 |
| 20260505192030 | 44 | 360 | 12.2 | 0.0 | 0.00 | 0.00 | 0.00 | 36 | 1018.2 |
| 20260505191530 | 44 | 360 | 11.3 | 0.0 | 0.00 | 0.00 | 0.00 | 36 | 1018.2 |
| 20260505191028 | 44 | 360 | 11.3 | 0.0 | 0.00 | 0.00 | 0.00 | 36 | 1018.2 |
| 20260505190528 | 44 | 360 | 11.3 | 0.0 | 0.00 | 0.00 | 0.00 | 35 | 1018.2 |
| 20260505190131 | 44 | 360 | 11.3 | 0.0 | 0.00 | 0.00 | 0.00 | 36 | 1018.3 |
| 20260505185528 | 44 | 360 | 12.2 | 0.0 | 0.00 | 0.00 | 0.00 | 36 | 1018.3 |
| 20260505185030 | 44 | 360 | 12.2 | 0.0 | 0.00 | 0.00 | 0.00 | 36 | 1018.3 |
| 20260505184529 | 44 | 360 | 12.2 | 0.0 | 0.00 | 0.00 | 0.00 | 36 | 1018.2 |
| 20260505184028 | 44 | 360 | 11.3 | 0.0 | 0.00 | 0.00 | 0.00 | 36 | 1018.2 |
| 20260505183530 | 43 | 360 | 11.3 | 0.0 | 0.00 | 0.00 | 0.00 | 36 | 1018.2 |
| 20260505183034 | 43 | 360 | 12.2 | 0.0 | 0.00 | 0.00 | 0.00 | 37 | 1018.2 |
| 20260505182527 | 43 | 360 | 12.2 | 0.0 | 0.00 | 0.00 | 0.00 | 37 | 1018.2 |
| 20260505182027 | 43 | 360 | 12.2 | 0.0 | 0.00 | 0.00 | 0.00 | 36 | 1018.2 |
| 20260505181527 | 43 | 360 | 11.3 | 0.0 | 0.00 | 0.00 | 0.00 | 36 | 1018.2 |
| 20260505181027 | 44 | 360 | 11.3 | 0.0 | 0.00 | 0.00 | 0.00 | 36 | 1018.1 |
| 20260505180527 | 43 | 360 | 12.2 | 0.0 | 0.00 | 0.00 | 0.00 | 36 | 1018.1 |
| 20260505180128 | 44 | 360 | 12.2 | 0.0 | 0.00 | 0.00 | 0.00 | 35 | 1018.2 |
| 20260505175526 | 44 | 360 | 12.2 | 0.0 | 0.00 | 0.00 | 0.00 | 36 | 1018.2 |
| 20260505175026 | 44 | 360 | 12.2 | 0.0 | 0.00 | 0.00 | 0.00 | 36 | 1018.2 |
| 20260505174526 | 43 | 360 | 11.3 | 0.0 | 0.00 | 0.00 | 0.00 | 36 | 1018.2 |
| 20260505174027 | 43 | 360 | 12.2 | 0.0 | 0.00 | 0.00 | 0.00 | 35 | 1018.1 |
| 20260505173526 | 44 | 360 | 13.0 | 0.0 | 0.00 | 0.00 | 0.00 | 36 | 1018.3 |
| 20260505173026 | 43 | 360 | 12.2 | 0.0 | 0.00 | 0.00 | 0.00 | 36 | 1018.2 |
| 20260505172525 | 44 | 360 | 11.3 | 0.0 | 0.00 | 0.00 | 0.00 | 35 | 1018.3 |
| 20260505172025 | 43 | 360 | 13.0 | 0.0 | 0.00 | 0.00 | 0.00 | 37 | 1018.3 |
| 20260505171524 | 43 | 360 | 13.0 | 0.0 | 0.00 | 0.00 | 0.00 | 35 | 1018.4 |
| 20260505171026 | 43 | 360 | 12.2 | 0.0 | 0.00 | 0.00 | 0.00 | 36 | 1018.4 |
| 20260505170523 | 43 | 360 | 13.0 | 0.0 | 0.00 | 0.00 | 0.00 | 36 | 1018.4 |
| 20260505170126 | 43 | 360 | 12.2 | 0.0 | 0.00 | 0.00 | 0.00 | 37 | 1018.4 |
| 20260505165526 | 42 | 360 | 13.0 | 0.0 | 0.00 | 0.00 | 0.00 | 37 | 1018.5 |
| 20260505165027 | 42 | 360 | 12.2 | 0.0 | 0.00 | 0.00 | 0.00 | 38 | 1018.3 |
| 20260505164524 | 42 | 360 | 13.0 | 0.0 | 0.00 | 0.00 | 0.00 | 35 | 1018.5 |
| 20260505164024 | 43 | 360 | 14.8 | 0.0 | 0.00 | 0.00 | 0.00 | 37 | 1018.4 |
| 20260505163522 | 43 | 360 | 14.8 | 0.0 | 0.00 | 0.00 | 0.00 | 37 | 1018.3 |
| 20260505163021 | 42 | 360 | 13.9 | 0.0 | 0.00 | 0.00 | 0.00 | 39 | 1018.3 |
| 20260505162528 | 40 | 360 | 14.8 | 0.0 | 0.00 | 0.00 | 0.00 | 40 | 1018.4 |
| 20260505162021 | 41 | 360 | 13.9 | 0.0 | 0.00 | 0.00 | 0.00 | 39 | 1018.5 |
| 20260505161535 | 41 | 360 | 13.0 | 0.0 | 0.00 | 0.00 | 0.00 | 41 | 1018.3 |
| 20260505161020 | 41 | 360 | 13.9 | 0.0 | 0.00 | 0.00 | 0.00 | 39 | 1018.3 |
| 20260505160521 | 41 | 360 | 13.9 | 0.0 | 0.00 | 0.00 | 0.00 | 40 | 1018.4 |
| 20260505160118 | 40 | 360 | 13.0 | 0.0 | 0.00 | 0.00 | 0.00 | 40 | 1018.4 |
| 20260505153016 | 38 | 360 | 13.0 | 0.0 | 0.00 | 0.00 | 0.00 | 43 | 1018.4 |
| 20260505152515 | 38 | 360 | 13.9 | 0.0 | 0.00 | 0.00 | 0.00 | 43 | 1018.4 |
| 20260505152014 | 38 | 360 | 14.8 | 0.0 | 0.00 | 0.00 | 0.00 | 42 | 1018.4 |
| 20260505151513 | 39 | 360 | 14.8 | 0.0 | 0.00 | 0.00 | 0.00 | 41 | 1018.4 |
| 20260505151013 | 39 | 360 | 13.9 | 0.0 | 0.00 | 0.00 | 0.00 | 42 | 1018.3 |
| 20260505150513 | 38 | 360 | 14.8 | 0.0 | 0.00 | 0.00 | 0.00 | 42 | 1018.3 |
| 20260505150111 | 39 | 360 | 13.9 | 0.0 | 0.00 | 0.00 | 0.00 | 42 | 1018.2 |
| 20260505140505 | 38 | 360 | 13.9 | 0.0 | 0.00 | 0.00 | 0.00 | 48 | 1017.8 |
| 20260505140106 | 38 | 360 | 13.0 | 0.0 | 0.00 | 0.00 | 0.00 | 51 | 1017.9 |
| 20260505130112 | 36 | 360 | 8.7 | 0.0 | 0.00 | 0.00 | 0.00 | 58 | 1017.3 |
| 20260505124558 | 36 | 360 | 8.7 | 0.0 | 0.00 | 0.00 | 0.00 | 59 | 1017.2 |
| 20260505124057 | 35 | 360 | 7.8 | 0.0 | 0.00 | 0.00 | 0.00 | 60 | 1017.2 |
| 20260505123556 | 35 | 360 | 7.0 | 0.0 | 0.00 | 0.00 | 0.00 | 61 | 1017.1 |
| 20260505123102 | 35 | 360 | 7.8 | 0.0 | 0.00 | 0.00 | 0.00 | 61 | 1017.1 |
| 20260505122555 | 35 | 360 | 7.0 | 0.0 | 0.00 | 0.00 | 0.00 | 61 | 1016.9 |
| 20260505122055 | 35 | 360 | 7.0 | 0.0 | 0.00 | 0.00 | 0.00 | 61 | 1016.9 |
| 20260505121556 | 35 | 360 | 7.8 | 0.0 | 0.00 | 0.00 | 0.00 | 61 | 1016.9 |
| 20260505121053 | 35 | 360 | 7.8 | 0.0 | 0.00 | 0.00 | 0.00 | 61 | 1016.8 |
| 20260505120553 | 35 | 360 | 7.0 | 0.0 | 0.00 | 0.00 | 0.00 | 63 | 1016.7 |
| 20260505120059 | 35 | 360 | 6.1 | 0.0 | 0.00 | 0.00 | 0.00 | 63 | 1016.7 |
| 20260505115552 | 35 | 360 | 6.1 | 0.0 | 0.00 | 0.00 | 0.00 | 63 | 1016.7 |
| 20260505115052 | 35 | 360 | 6.1 | 0.0 | 0.00 | 0.00 | 0.00 | 62 | 1016.7 |
| 20260505114552 | 35 | 360 | 6.1 | 0.0 | 0.00 | 0.00 | 0.00 | 62 | 1016.7 |
| 20260505114052 | 35 | 360 | 7.0 | 0.0 | 0.00 | 0.00 | 0.00 | 61 | 1016.6 |
| 20260505113552 | 35 | 360 | 7.0 | 0.0 | 0.00 | 0.00 | 0.00 | 61 | 1016.6 |
| 20260505113058 | 35 | 360 | 7.8 | 0.0 | 0.00 | 0.00 | 0.00 | 61 | 1016.6 |
| 20260505112550 | 35 | 360 | 7.0 | 0.0 | 0.00 | 0.00 | 0.00 | 61 | 1016.6 |
| 20260505112049 | 35 | 360 | 7.0 | 0.0 | 0.00 | 0.00 | 0.00 | 62 | 1016.5 |
| 20260505111549 | 35 | 360 | 7.0 | 0.0 | 0.00 | 0.00 | 0.00 | 63 | 1016.6 |
| 20260505111049 | 35 | 360 | 6.1 | 0.0 | 0.00 | 0.00 | 0.00 | 62 | 1016.6 |
| 20260505110548 | 35 | 360 | 6.1 | 0.0 | 0.00 | 0.00 | 0.00 | 63 | 1016.5 |
| 20260505102041 | 36 | 360 | 7.8 | 0.0 | 0.00 | 0.00 | 0.00 | 63 | 1016.3 |
| 20260505101548 | 36 | 360 | 7.0 | 0.0 | 0.00 | 0.00 | 0.00 | 63 | 1016.3 |
| 20260505101041 | 36 | 360 | 7.0 | 0.0 | 0.00 | 0.00 | 0.00 | 62 | 1016.3 |
| 20260505100544 | 36 | 360 | 7.0 | 0.0 | 0.00 | 0.00 | 0.00 | 62 | 1016.3 |
| 20260505100040 | 36 | 360 | 7.0 | 0.0 | 0.00 | 0.00 | 0.00 | 61 | 1016.2 |
| 20260505095545 | 36 | 360 | 7.0 | 0.0 | 0.00 | 0.00 | 0.00 | 61 | 1016.1 |
| 20260505095039 | 36 | 360 | 7.8 | 0.0 | 0.00 | 0.00 | 0.00 | 61 | 1016.2 |
| 20260505094539 | 36 | 360 | 7.8 | 0.0 | 0.00 | 0.00 | 0.00 | 60 | 1016.0 |
| 20260505094038 | 36 | 360 | 7.8 | 0.0 | 0.00 | 0.00 | 0.00 | 60 | 1016.0 |
| 20260505093542 | 36 | 360 | 7.0 | 0.0 | 0.00 | 0.00 | 0.00 | 60 | 1016.0 |
| 20260505093039 | 36 | 360 | 6.1 | 0.0 | 0.00 | 0.00 | 0.00 | 60 | 1015.9 |
| 20260505092539 | 36 | 360 | 7.0 | 0.0 | 0.00 | 0.00 | 0.00 | 60 | 1015.9 |
| 20260505092037 | 36 | 360 | 7.0 | 0.0 | 0.00 | 0.00 | 0.00 | 59 | 1015.9 |
| 20260505091537 | 36 | 360 | 6.1 | 0.0 | 0.00 | 0.00 | 0.00 | 59 | 1015.9 |
| 20260505091036 | 36 | 360 | 6.1 | 0.0 | 0.00 | 0.00 | 0.00 | 59 | 1015.8 |
| 20260505090536 | 36 | 360 | 6.1 | 0.0 | 0.00 | 0.00 | 0.00 | 59 | 1015.8 |
| 20260505090042 | 36 | 360 | 7.0 | 0.0 | 0.00 | 0.00 | 0.00 | 59 | 1015.9 |
| 20260505085535 | 36 | 360 | 7.0 | 0.0 | 0.00 | 0.00 | 0.00 | 59 | 1015.8 |
| 20260505085035 | 36 | 360 | 7.0 | 0.0 | 0.00 | 0.00 | 0.00 | 59 | 1015.8 |
| 20260505084546 | 36 | 360 | 6.1 | 0.0 | 0.00 | 0.00 | 0.00 | 59 | 1015.8 |
| 20260505084033 | 36 | 360 | 6.1 | 0.0 | 0.00 | 0.00 | 0.00 | 59 | 1015.8 |
| 20260505083533 | 36 | 360 | 7.0 | 0.0 | 0.00 | 0.00 | 0.00 | 59 | 1015.7 |
| 20260505083039 | 36 | 360 | 6.1 | 0.0 | 0.00 | 0.00 | 0.00 | 59 | 1015.7 |
| 20260505082533 | 36 | 360 | 5.2 | 0.0 | 0.00 | 0.00 | 0.00 | 59 | 1015.7 |
| 20260505082032 | 36 | 360 | 5.2 | 0.0 | 0.00 | 0.00 | 0.00 | 58 | 1015.7 |
| 20260505081533 | 36 | 360 | 5.2 | 0.0 | 0.00 | 0.00 | 0.00 | 58 | 1015.7 |
| 20260505081034 | 36 | 360 | 5.2 | 0.0 | 0.00 | 0.00 | 0.00 | 58 | 1015.6 |
| 20260505080531 | 36 | 360 | 4.3 | 0.0 | 0.00 | 0.00 | 0.00 | 58 | 1015.6 |
| 20260505080042 | 36 | 360 | 5.2 | 0.0 | 0.00 | 0.00 | 0.00 | 58 | 1015.8 |
| 20260505075533 | 36 | 360 | 5.2 | 0.0 | 0.00 | 0.00 | 0.00 | 58 | 1015.8 |
| 20260505075031 | 36 | 360 | 5.2 | 0.0 | 0.00 | 0.00 | 0.00 | 58 | 1015.7 |
| 20260505074531 | 36 | 360 | 5.2 | 0.0 | 0.00 | 0.00 | 0.00 | 58 | 1015.7 |
| 20260505074031 | 36 | 360 | 6.1 | 0.0 | 0.00 | 0.00 | 0.00 | 58 | 1015.6 |
| 20260505073531 | 36 | 360 | 6.1 | 0.0 | 0.00 | 0.00 | 0.00 | 58 | 1015.6 |
| 20260505073034 | 36 | 360 | 6.1 | 0.0 | 0.00 | 0.00 | 0.00 | 58 | 1015.6 |
| 20260505072531 | 36 | 360 | 5.2 | 0.0 | 0.00 | 0.00 | 0.00 | 57 | 1015.6 |
| 20260505072029 | 36 | 360 | 5.2 | 0.0 | 0.00 | 0.00 | 0.00 | 57 | 1015.5 |
| 20260505071542 | 37 | 360 | 6.1 | 0.0 | 0.00 | 0.00 | 0.00 | 57 | 1015.6 |
| 20260505071030 | 37 | 360 | 6.1 | 0.0 | 0.00 | 0.00 | 0.00 | 56 | 1015.6 |
| 20260505070528 | 37 | 360 | 7.0 | 0.0 | 0.00 | 0.00 | 0.00 | 56 | 1015.5 |
| 20260505070027 | 37 | 360 | 7.0 | 0.0 | 0.00 | 0.00 | 0.00 | 56 | 1015.5 |
| 20260505065528 | 37 | 360 | 7.0 | 0.0 | 0.00 | 0.00 | 0.00 | 56 | 1015.5 |
| 20260505065027 | 37 | 360 | 7.0 | 0.0 | 0.00 | 0.00 | 0.00 | 56 | 1015.5 |
| 20260505064533 | 37 | 360 | 7.8 | 0.0 | 0.00 | 0.00 | 0.00 | 56 | 1015.5 |
| 20260505064029 | 37 | 360 | 7.0 | 0.0 | 0.00 | 0.00 | 0.00 | 56 | 1015.4 |
| 20260505063526 | 37 | 360 | 7.0 | 0.0 | 0.00 | 0.00 | 0.00 | 56 | 1015.5 |
| 20260505063026 | 37 | 360 | 6.1 | 0.0 | 0.00 | 0.00 | 0.00 | 56 | 1015.4 |
| 20260505062525 | 37 | 360 | 6.1 | 0.0 | 0.00 | 0.00 | 0.00 | 56 | 1015.5 |
| 20260505062024 | 37 | 360 | 6.1 | 0.0 | 0.00 | 0.00 | 0.00 | 55 | 1015.4 |
| 20260505061527 | 37 | 360 | 6.1 | 0.0 | 0.00 | 0.00 | 0.00 | 55 | 1015.4 |
| 20260505061022 | 37 | 360 | 7.8 | 0.0 | 0.00 | 0.00 | 0.00 | 54 | 1015.4 |
| 20260505060522 | 37 | 360 | 7.8 | 0.0 | 0.00 | 0.00 | 0.00 | 54 | 1015.3 |
| 20260505060032 | 37 | 360 | 7.8 | 0.0 | 0.00 | 0.00 | 0.00 | 53 | 1015.3 |
| 20260505055522 | 37 | 360 | 7.8 | 0.0 | 0.00 | 0.00 | 0.00 | 53 | 1015.3 |
| 20260505055022 | 37 | 360 | 8.7 | 0.0 | 0.00 | 0.00 | 0.00 | 53 | 1015.2 |
| 20260505054522 | 37 | 360 | 7.8 | 0.0 | 0.00 | 0.00 | 0.00 | 53 | 1015.2 |
| 20260505054021 | 37 | 360 | 7.0 | 0.0 | 0.00 | 0.00 | 0.00 | 53 | 1015.2 |
| 20260505053520 | 38 | 360 | 7.8 | 0.0 | 0.00 | 0.00 | 0.00 | 53 | 1015.1 |
| 20260505053025 | 38 | 360 | 7.0 | 0.0 | 0.00 | 0.00 | 0.00 | 53 | 1015.1 |
| 20260505052520 | 38 | 360 | 7.8 | 0.0 | 0.00 | 0.00 | 0.00 | 53 | 1015.1 |
| 20260505052020 | 38 | 360 | 7.8 | 0.0 | 0.00 | 0.00 | 0.00 | 53 | 1015.0 |
| 20260505051520 | 38 | 360 | 7.0 | 0.0 | 0.00 | 0.00 | 0.00 | 53 | 1014.9 |
| 20260505051018 | 38 | 360 | 7.0 | 0.0 | 0.00 | 0.00 | 0.00 | 53 | 1014.9 |
| 20260505050518 | 38 | 360 | 7.0 | 0.0 | 0.00 | 0.00 | 0.00 | 53 | 1014.8 |
| 20260505041515 | 38 | 360 | 5.2 | 0.0 | 0.00 | 0.00 | 0.00 | 54 | 1014.6 |
| 20260505041015 | 38 | 360 | 5.2 | 0.0 | 0.00 | 0.00 | 0.00 | 54 | 1014.6 |
| 20260505040516 | 38 | 360 | 5.2 | 0.0 | 0.00 | 0.00 | 0.00 | 54 | 1014.6 |
| 20260505040016 | 38 | 360 | 4.3 | 0.0 | 0.00 | 0.00 | 0.00 | 55 | 1014.5 |
| 20260505035514 | 38 | 360 | 4.3 | 0.0 | 0.00 | 0.00 | 0.00 | 55 | 1014.5 |
| 20260505035017 | 38 | 360 | 4.3 | 0.0 | 0.00 | 0.00 | 0.00 | 55 | 1014.5 |
| 20260505034513 | 38 | 360 | 5.2 | 0.0 | 0.00 | 0.00 | 0.00 | 54 | 1014.5 |
| 20260505034014 | 38 | 360 | 5.2 | 0.0 | 0.00 | 0.00 | 0.00 | 54 | 1014.5 |
| 20260505033516 | 38 | 360 | 6.1 | 0.0 | 0.00 | 0.00 | 0.00 | 54 | 1014.5 |
| 20260505033012 | 38 | 360 | 6.1 | 0.0 | 0.00 | 0.00 | 0.00 | 54 | 1014.4 |
| 20260505032512 | 38 | 360 | 7.0 | 0.0 | 0.00 | 0.00 | 0.00 | 53 | 1014.4 |
| 20260505032010 | 38 | 360 | 7.8 | 0.0 | 0.00 | 0.00 | 0.00 | 53 | 1014.3 |
| 20260505031512 | 39 | 360 | 8.7 | 0.0 | 0.00 | 0.00 | 0.00 | 52 | 1014.3 |
| 20260505031012 | 39 | 360 | 9.6 | 0.0 | 0.00 | 0.00 | 0.00 | 52 | 1014.2 |
| 20260505030510 | 39 | 360 | 11.3 | 0.0 | 0.00 | 0.00 | 0.00 | 52 | 1014.1 |
| 20260505030009 | 39 | 360 | 11.3 | 0.0 | 0.00 | 0.00 | 0.00 | 51 | 1014.1 |
| 20260505025508 | 39 | 360 | 11.3 | 0.0 | 0.00 | 0.00 | 0.00 | 51 | 1014.0 |
| 20260505025006 | 39 | 360 | 10.4 | 0.0 | 0.00 | 0.00 | 0.00 | 52 | 1014.0 |
| 20260505024506 | 39 | 360 | 9.6 | 0.0 | 0.00 | 0.00 | 0.00 | 52 | 1013.9 |
| 20260505024010 | 39 | 360 | 9.6 | 0.0 | 0.00 | 0.00 | 0.00 | 51 | 1013.8 |